Location: Unspecified
(41.1637°N, 24.2901°E)
Time: 09:36:46
(UTC+02:00)

ISS - Pass Details

Date: 11 September 2024
Orbit: 415 x 426 km, 51.6° (Epoch: 09 September)

Event Time Altitude Azimuth Distance (km) Brightness Sun altitude
Rises 19:48:23 0° 221° (SW) 2,344 0.4 -13.7°
Reaches altitude 10° 19:50:30 10° 217° (SW) 1,487 -0.7 -14.1°
Maximum altitude 19:53:45 52° 140° (SE) 527 -3.6 -14.7°
Enters shadow 19:55:13 28° 76° (ENE) 821 -2.8 -14.9°
